SCP
0 0 0 0 0 0 0 0 0 0 0 0 0 0 0 0 0 0 0 0 0 0 0 0 0 0 0 0 0 0 0 0 0 0 0 0 0 0 0 0 0 0 0
0 0 0 0 0 0 0 0 0 0 0 0 0 0 0 0 0 0 0 0 0 0 0 0 0 0 0 0 0 0 0 0 0 0 0 0 0 0 0 0 0 0 0
0 0 0 0 0 0 0 0 0 0 0 0 0 0 0 0 0 0 0 0 0 0 0 0 0 0 0 0 0 0 0 0 0 0 0 0 0 0 0 0 0 0 0
0 0 0 0 0 0 0 0 0 0 0 0 0 0 0 0 0 0 0 0 0 0 0 0 0 0 0 0 0 0 0 0 0 0 0 0 0 0 0 0 0 0 0
0 0 0 0 0 0 0 0 0 0 0 0 0 0 0 0 0 0 0 0 0 0 0 0 0 0 0 0 0 0 0 0 0 0 0 0 0 0 0 0 0 0 0
0 0 0 0 0 0 0 0 0 0 0 0 0 0 0 0 0 0 0 0 0 0 0 0 0 0 0 0 0 0 0 0 0 0 0 0 0 0 0 0 0 0 0
0 0 0 0 0 0 0 0 0 0 0 0 0 0 0 0 0 0 0 0 0 0 0 0 0 0 0 0 0 0 0 0 0 0 0 0 0 0 0 0 0 0 0
0 0 0 0 0 0 0 0 0 0 0 0 0 0 0 0 0 0 0 0 0 0 0 0 0 0 0 0 0 0 0 0 0 0 0 0 0 0 0 0 0 0 0
0 0 0 0 0 0 0 0 0 0 0 0 0 0 0 0 0 0 0 0 0 0 0 0 0 0 0 0 0 0 0 0 0 0 0 0 0 0 0 0 0 0 0
0 0 0 0 0 0 0 0 0 0 0 0 0 0 0 0 0 0 0 0 0 0 0 0 0 0 0 0 0 0 0 0 0 0 0 0 0 0 0 0 0 0 0
0 0 0 0 0 0 0 0 0 0 0 0 0 0 0 0 0 0 0 0 0 0 0 0 0 0 0 0 0 0 0 0 0 0 0 0 0 0 0 0 0 0 0
0 0 0 0 0 0 0 0 0 0 0 0 0 0 0 0 0 0 0 0 0 0 0 0 0 0 0 0 0 0 0 0 0 0 0 0 0 0 0 0 0 0 0
0 0 0 0 0 0 0 0 0 0 0 0 0 0 0 0 0 0 0 0 0 0 0 0 0 0 0 0 0 0 0 0 0 0 0 0 0 0 0 0 0 0 0
0 0 0 0 0 0 0 0 0 0 0 0 0 0 0 0 0 0 0 0 0 0 0 0 0 0 0 0 0 0 0 0 0 0 0 0 0 0 0 0 0 0 0
0 0 0 0 0 0 0 0 0 0 0 0 0 0 0 0 0 0 0 0 0 0 0 0 0 0 0 0 0 0 0 0 0 0 0 0 0 0 0 0 0 0 0
0 0 0 0 0 0 0 0 0 0 0 0 0 0 0 0 0 0 0 0 0 0 0 0 0 0 0 0 0 0 0 0 0 0 0 0 0 0 0 0 0 0 0
0 0 0 0 0 0 0 0 0 0 0 0 0 0 0 0 0 0 0 0 0 0 0 0 0 0 0 0 0 0 0 0 0 0 0 0 0 0 0 0 0 0 0
0 0 0 0 0 0 0 0 0 0 0 0 0 0 0 0 0 0 0 0 0 0 0 0 0 0 0 0 0 0 0 0 0 0 0 0 0 0 0 0 0 0 0
0 0 0 0 0 0 0 0 0 0 0 0 0 0 0 0 0 0 0 0 0 0 0 0 0 0 0 0 0 0 0 0 0 0 0 0 0 0 0 0 0 0 0
0 0 0 0 0 0 0 0 0 0 0 0 0 0 0 0 0 0 0 0 0 0 0 0 0 0 0 0 0 0 0 0 0 0 0 0 0 0 0 0 0 0 0
0 0 0 0 0 0 0 0 0 0 0 0 0 0 0 0 0 0 0 0 0 0 0 0 0 0 0 0 0 0 0 0 0 0 0 0 0 0 0 0 0 0 0
0 0 0 0 0 0 0 0 0 0 0 0 0 0 0 0 0 0 0 0 0 0 0 0 0 0 0 0 0 0 0 0 0 0 0 0 0 0 0 0 0 0 0
0 0 0 0 0 0 0 0 0 0 0 0 0 0 0 0 0 0 0 0 0 0 0 0 0 0 0 0 0 0 0 0 0 0 0 0 0 0 0 0 0 0 0
0 0 0 0 0 0 0 0 0 0 0 0 0 0 0 0 0 0 0 0 0 0 0 0 0 0 0 0 0 0 0 0 0 0 0 0 0 0 0 0 0 0 0
0 0 0 0 0 0 0 0 0 0 0 0 0 0 0 0 0 0 0 0 0 0 0 0 0 0 0 0 0 0 0 0 0 0 0 0 0 0 0 0 0 0 0
0 0 0 0 0 0 0 0 0 0 0 0 0 0 0 0 0 0 0 0 0 0 0 0 0 0 0 0 0 0 0 0 0 0 0 0 0 0 0 0 0 0 0
Wind_Speed
18 18 17 16 16 14 14 14 13 11 11 11 11 10 10 10 9 9 9 9 10 10 10 10 12 11 9 9 9 9 10 11 14 14 11 9 9 10 11 9 10 10 12
16 16 17 15 14 15 16 14 13 12 12 12 11 11 11 10 10 10 11 10 10 11 11 11 13 10 11 10 9 11 11 11 12 17 13 9 10 10 10 10 10 11 9
13 15 16 16 16 17 17 14 14 13 12 12 11 12 11 11 10 10 10 10 11 12 12 12 13 11 12 11 11 12 11 12 11 13 14 10 8 8 8 10 11 9 11
13 15 17 18 19 18 15 14 14 14 13 13 12 12 11 10 10 10 10 10 11 12 12 13 13 12 13 13 12 13 13 13 11 11 12 10 9 7 6 8 10 7 9
15 17 19 17 15 15 15 15 14 14 14 12 12 11 10 9 9 10 10 11 11 12 12 12 13 16 19 17 13 12 11 10 9 10 10 10 9 7 7 7 9 9 9
16 19 16 15 15 16 16 15 14 14 13 12 12 11 11 10 15 19 14 10 11 12 11 10 11 14 18 23 25 24 20 13 10 9 9 10 10 8 8 8 8 9 8
16 16 15 15 16 16 15 15 15 15 13 13 12 12 12 13 19 20 20 12 9 9 9 9 9 11 16 10 17 23 20 23 20 12 10 10 10 8 8 9 9 10 11
15 15 15 16 17 15 15 16 15 13 13 12 12 12 11 13 19 19 19 12 8 8 8 9 10 10 11 14 12 12 11 12 14 10 9 10 10 9 9 9 10 10 10
15 16 16 16 16 15 17 16 14 12 11 11 10 11 11 12 17 18 17 7 7 8 8 9 9 10 18 23 14 10 10 10 14 17 17 15 17 17 13 7 6 8 9
16 15 13 14 16 16 16 14 11 11 11 10 10 10 10 10 14 17 17 6 7 7 7 8 14 15 19 21 10 7 9 9 7 7 9 11 9 10 15 6 5 6 7
11 10 11 13 15 14 12 11 10 10 9 9 9 9 9 11 13 17 17 7 7 7 7 6 7 16 19 19 15 7 11 10 4 5 6 6 6 5 6 5 6 6 7
8 10 11 12 12 11 11 10 10 10 10 9 8 8 7 8 12 14 17 15 12 7 6 5 7 16 17 17 12 13 16 11 3 4 5 6 6 6 6 6 7 8 9
8 10 10 10 11 10 11 12 10 10 9 8 8 8 7 6 8 15 16 15 15 8 5 10 13 15 14 9 12 16 12 5 4 5 6 6 6 6 6 6 6 7 8
9 9 8 9 9 10 9 10 10 10 10 9 9 8 6 5 6 6 6 7 10 8 6 8 12 12 9 10 10 8 5 5 6 6 6 6 5 5 6 5 6 5 6
8 8 7 8 8 9 10 10 11 11 11 11 9 8 7 7 9 11 7 6 5 5 4 2 2 3 4 4 4 5 4 5 5 5 6 6 6 6 6 5 5 5 6
8 7 6 6 7 8 8 7 15 13 17 19 15 11 9 10 10 11 12 10 9 7 3 2 3 3 4 5 5 5 5 5 5 5 6 6 6 7 7 6 5 6 7
9 7 6 7 7 8 8 9 8 11 16 17 17 16 13 12 11 11 10 8 7 5 2 2 3 4 4 5 5 5 6 6 5 5 6 6 6 7 7 7 6 6 7
8 9 8 6 7 8 8 8 8 8 8 7 12 17 16 13 11 10 8 5 3 3 2 3 4 4 4 4 5 5 5 5 5 5 5 6 6 6 7 7 6 7 8
7 5 6 5 6 6 7 7 7 8 7 6 4 7 13 12 11 10 7 3 3 3 3 3 4 4 4 4 5 5 5 6 6 5 6 6 6 6 6 7 7 11 9
6 11 8 5 6 6 7 7 7 7 7 7 7 7 6 7 5 5 4 3 3 4 4 4 4 4 4 4 4 5 5 6 6 5 6 6 5 6 7 8 7 7 7
5 6 11 7 6 7 7 7 7 7 7 7 6 8 12 7 6 6 5 4 4 4 4 4 3 4 4 3 4 5 6 6 5 5 5 6 6 6 6 6 7 7 7
4 4 4 5 5 6 6 6 7 7 7 7 5 7 14 7 5 5 5 4 4 4 3 3 3 3 4 4 4 5 6 6 6 5 6 6 6 6 6 6 7 7 7
4 5 5 5 5 9 8 6 7 7 7 7 6 6 6 6 5 5 5 4 3 3 3 3 3 3 4 4 4 5 6 6 6 5 6 6 6 6 6 6 7 8 8
5 5 5 5 6 6 6 7 7 7 7 7 7 6 6 6 5 5 4 3 3 3 3 3 3 4 6 5 4 5 5 6 5 4 6 6 6 6 6 6 7 8 8
5 5 5 6 6 6 6 7 7 7 7 7 7 6 6 5 5 4 4 3 3 3 3 3 3 4 5 7 6 6 8 9 7 4 4 4 5 6 6 7 7 7 7
5 5 5 5 6 6 6 7 7 7 7 6 6 6 6 5 5 4 4 4 3 2 2 2 3 4 5 5 6 8 9 9 8 8 4 3 4 5 6 5 7 7 7
Wind_Direction
209 208 210 208 207 205 207 209 207 205 204 208 211 214 219 224 224 226 234 236 241 248 249 248 252 251 253 253 251 251 251 252 267 278 278 279 273 278 286 285 286 284 286
209 207 211 208 203 206 211 209 204 205 206 209 210 215 221 225 224 226 236 240 240 247 250 250 255 256 253 254 254 254 254 251 257 274 280 279 274 275 279 283 289 291 285
207 208 210 209 206 209 210 206 203 204 206 208 210 216 221 224 226 229 234 240 242 246 249 250 255 255 258 258 257 258 257 257 253 263 275 276 274 273 280 285 284 280 284
207 210 213 212 210 210 207 203 202 202 204 208 212 217 221 224 228 232 236 241 245 249 250 250 252 252 256 260 261 259 259 261 258 260 268 273 272 269 272 286 292 286 288
210 214 218 214 210 208 205 203 202 202 206 207 211 217 220 223 227 230 236 241 245 251 252 251 251 257 260 266 267 266 263 263 264 263 267 272 274 278 276 278 287 294 287
214 220 218 211 208 207 205 202 201 203 204 203 210 215 219 226 240 246 246 239 243 249 254 253 256 266 273 280 286 288 286 281 273 269 272 271 273 272 273 276 283 291 291
219 222 216 211 210 208 204 200 202 201 200 205 210 213 222 231 243 251 257 256 246 247 249 256 266 267 280 277 282 287 289 289 285 278 272 266 269 267 268 274 272 273 275
222 223 217 211 211 206 202 204 204 199 200 206 209 213 221 233 243 252 259 261 255 248 247 251 259 266 271 276 271 269 267 268 273 275 261 262 264 263 254 260 268 275 273
228 226 219 212 210 205 205 205 200 196 200 205 207 210 218 233 243 251 259 252 254 253 253 255 259 260 275 286 285 277 277 274 278 280 280 280 280 285 285 281 278 282 285
235 230 219 211 210 208 207 202 194 193 199 200 209 211 217 227 240 249 256 249 253 258 257 257 270 276 284 292 288 278 282 282 275 284 290 293 292 293 296 285 264 270 275
243 230 219 212 211 209 202 195 187 189 190 197 208 213 217 227 241 249 254 244 245 256 262 258 258 283 292 297 300 284 285 297 280 271 273 276 279 274 271 260 242 242 252
238 228 220 211 206 202 194 190 185 185 190 197 205 217 221 229 236 245 251 254 256 252 259 260 266 287 295 303 307 302 307 316 298 281 279 279 279 278 275 268 256 246 242
239 230 221 208 202 196 191 187 183 186 191 196 201 215 221 216 230 242 250 257 265 263 256 274 286 296 306 311 307 307 313 308 291 287 283 281 276 274 279 279 273 263 258
247 237 217 204 201 196 194 190 188 189 192 195 201 210 215 214 215 227 239 253 259 268 274 282 292 301 304 301 305 309 302 284 286 283 285 284 285 285 283 280 285 288 283
251 237 217 205 199 198 200 199 196 198 195 193 199 197 197 211 222 222 219 223 225 238 253 243 268 291 293 293 293 292 288 291 294 287 287 291 291 292 290 287 282 282 276
255 239 218 205 198 195 197 205 215 207 210 210 207 200 209 217 228 232 237 247 256 264 259 246 267 276 282 289 295 298 296 294 291 290 290 290 292 293 294 291 284 280 281
250 242 219 207 201 197 195 196 197 210 216 216 215 213 212 216 225 232 238 244 251 258 240 250 263 270 276 282 285 288 291 293 291 290 291 292 291 291 292 292 291 288 285
253 245 230 211 203 200 200 197 191 186 192 206 216 216 216 217 222 226 231 231 235 232 221 243 256 264 270 277 282 287 290 294 292 291 289 289 290 292 292 292 291 288 289
254 243 227 208 200 198 196 193 190 188 189 185 178 209 212 212 215 220 218 201 209 226 232 243 251 259 266 273 280 285 288 290 290 290 290 289 288 290 290 291 291 294 295
254 248 236 210 196 193 191 192 192 189 186 186 191 191 186 187 195 204 203 195 208 223 230 241 250 256 263 269 277 284 288 289 290 287 289 290 289 287 289 291 292 293 291
259 250 241 223 197 191 190 192 191 188 189 191 194 190 184 184 192 197 201 204 210 219 225 235 245 255 261 267 271 277 282 287 287 285 289 291 291 292 290 289 291 291 292
251 238 224 213 197 194 193 191 189 191 191 190 183 191 196 184 187 194 202 208 210 213 216 224 237 246 251 257 267 274 279 284 286 287 288 289 290 291 292 293 296 298 298
245 235 226 215 200 203 202 191 189 191 191 188 182 181 186 181 187 196 200 201 202 209 213 219 237 254 259 262 264 266 273 279 280 279 285 292 294 295 296 297 299 303 303
238 231 224 213 201 197 194 190 190 191 187 184 184 183 184 182 185 192 190 189 195 205 211 218 235 254 268 278 277 273 272 278 277 272 278 285 292 297 298 300 300 303 303
234 229 221 211 203 198 194 191 188 188 185 184 185 183 180 178 181 183 179 180 186 199 212 223 241 258 271 282 286 283 290 302 308 301 284 290 294 296 300 302 306 308 309
233 225 216 206 201 197 192 190 188 185 184 183 180 178 176 176 177 176 173 174 182 196 211 231 251 265 279 284 284 293 307 314 317 321 318 294 299 302 308 307 313 315 317